Regional Weather Roundup
Issued by NWS

Home | Current Version | Previous Version | Text Only | Print | Product List | Glossary On
Versions: 1 2 3 4 5 6 7 8 9 10 11 12 13 14 15 16 17 18 19 20 21 22 23 24 25 26 27 28 29 30 31 32 33 34 35 36 37 38 39 40 41 42 43 44 45 46 47 48 49 50
000
ASUS45 KABQ 010710
RWRNM
NEW MEXICO REGIONAL WEATHER ROUNDUP
NATIONAL WEATHER SERVICE ALBUQUERQUE NM
100 AM MDT WED JUN 01 2016

NOTE: "FAIR" MEANS FEW OR NO CLOUDS BELOW 12,000 FEET AGL WITH NO
       SIGNIFICANT WEATHER OR OBSTRUCTIONS TO VISION.

      THIS PRODUCT IS RELEASED AS TWO VERSIONS.  ONE VERSION NEAR
      THE TOP OF THE HOUR CONTAINING PRELIMINARY DATA FROM ALBUQUERQUE
      AND OTHER STATIONS.  A FINAL VERSION WITH ADDITIONAL DATA IS
      ISSUED ABOUT 10 MINUTES AFTER THE HOUR.

NMZ501-503-504-510>518-010800-
NORTHWEST PLATEAU/NORTHCENTRAL MOUNTAINS

CITY           SKY/WX    TMP DP  RH WIND       PRES   REMARKS
FARMINGTON     FAIR      64  32  30 SE8       29.98S
LOS ALAMOS     FAIR      53  37  54 S12G17    30.19S
SANTA FE       FAIR      54  41  61 S13       30.14R
TAOS           CLOUDY    54  34  47 S8        30.18S
ANGEL FIRE     LGT RAIN  41  37  84 S6        30.28S

$$
NMZ402-403-502-505>509-010800-
WESTCENTRAL MOUNTAINS/SOUTHWEST MOUNTAINS

CITY           SKY/WX    TMP DP  RH WIND       PRES   REMARKS
GALLUP         FAIR      58  30  34 S7        30.07F
GRANTS         FAIR      49  33  56 S6        30.10F
SILVER CITY      N/A     61  36  39 E6        30.07R

$$
NMZ407-409-411-412-010800-
SOUTHERN DESERTS

CITY           SKY/WX    TMP DP  RH WIND       PRES   REMARKS
LORDSBURG      FAIR      68  34  28 N7        29.96S
DEMING         FAIR      64  44  48 CALM      29.99F
LAS CRUCES     FAIR      65  38  37 NW5       30.01S
HOLLOMAN AFB   MOCLDY    63  47  55 SW1       29.97R
ALAMOGORDO     MOCLDY    64  45  48 S9        30.00R
T OR C         FAIR      65  43  44 NE3       30.00S

$$
NMZ519>523-010800-
CENTRAL VALLEYS/CENTRAL HIGHLANDS

CITY           SKY/WX    TMP DP  RH WIND       PRES   REMARKS
ALBUQUERQUE    FAIR      61  41  47 E23G32    30.07R
DOUBLE EAGLE   FAIR      54  40  59 E3        30.11R
MORIARTY ARPT  FAIR      48  41  77 SW3       30.17S
CLINES CORNERS FAIR      46  43  89 E8        30.17S
BELEN          FAIR      58  38  47 CALM      30.07R
SOCORRO        FAIR      60  39  45 E8        30.05R

$$
NMZ524>526-539-540-010800-
SOUTHCENTRAL MOUNTAINS

CITY           SKY/WX    TMP DP  RH WIND       PRES   REMARKS
RUIDOSO          N/A     48  41  76 S9        30.19S

$$
NMZ527>531-010800-
NORTHEAST HIGHLANDS/NORTHEAST PLAINS

CITY           SKY/WX    TMP DP  RH WIND       PRES   REMARKS
LAS VEGAS      MOCLDY    46  42  86 NW10      30.18F
RATON          FAIR      49  44  83 N9        30.18F
CLAYTON        CLOUDY    58  52  80 NW5       30.13R THUNDER

$$
NMZ532>537-010800-
EASTCENTRAL PLAINS

CITY           SKY/WX    TMP DP  RH WIND       PRES   REMARKS
TUCUMCARI      LGT RAIN  58  54  86 SE9       30.04S
CANNON AFB     CLOUDY    57  57 100 NE6       30.05R
CLOVIS AIRPORT CLOUDY    57  52  82 NE13      30.05F

$$
NMZ028-029-538-010800-
SOUTHEAST PLAINS

CITY           SKY/WX    TMP DP  RH WIND       PRES   REMARKS
ROSWELL        FAIR      60  52  74 N8        30.02S
ARTESIA        FAIR      59  57  94 NW12      30.02S
CARLSBAD       FAIR      61  55  81 W9        29.99S
HOBBS          FAIR      59  59 100 N7        30.01F


$$




USA.gov is the U.S. government's official web portal to all federal, state and local government web resources and services.